Location: Betz
(49.1556°N, 2.9558°E)
Time: 03:05:44
(UTC+00:00)

NOSS 0 Rocket - Visible Passes

Search period start: 06 December 2019 00:00
Search period end: 16 December 2019 00:00
Orbit: 933 x 956 km, 70.0° (Epoch: 05 December)

Date Brightness Start Highest point End Pass type
(mag) Time Alt. Az. Time Alt. Az. Time Alt. Az.
06 Dec 4.5 17:11:26 10° S 17:17:01 36° ESE 17:21:06 17° NE visible
06 Dec 4.6 18:57:17 10° SW 19:03:18 51° NW 19:05:07 39° N visible
06 Dec 6.5 20:47:27 10° WNW 20:49:09 14° NW 20:49:09 14° NW visible
07 Dec 4.1 17:27:03 10° S 17:33:05 56° ESE 17:37:30 19° NE visible
07 Dec 5.2 19:14:10 10° WSW 19:19:51 36° NW 19:21:32 31° NNW visible
07 Dec 6.7 21:05:20 10° NW 21:05:33 10° NW 21:05:33 10° NW visible
08 Dec 3.9 17:43:04 10° SSW 17:49:17 84° ESE 17:53:49 20° NNE visible
08 Dec 5.6 19:31:22 10° W 19:36:31 26° NW 19:37:50 25° NNW visible
09 Dec 4.2 17:59:25 10° SW 18:05:36 67° WNW 18:10:05 20° NNE visible
09 Dec 5.9 19:48:50 10° W 19:53:19 20° NNW 19:54:06 20° NNW visible
10 Dec 4.5 16:29:53 10° S 16:35:38 41° ESE 16:41:25 10° NE visible
10 Dec 4.8 18:16:06 10° WSW 18:22:03 46° NW 18:26:17 19° NNE visible
10 Dec 6.2 20:06:33 10° WNW 20:10:14 16° NNW 20:10:18 16° NNW visible
11 Dec 4.0 16:45:38 10° SSW 16:51:45 63° ESE 16:57:55 10° NE visible
11 Dec 5.3 18:33:04 10° WSW 18:38:38 33° NW 18:42:27 18° N visible
11 Dec 6.4 20:24:27 10° NW 20:26:27 13° NNW 20:26:27 13° NNW visible
12 Dec 4.0 17:01:44 10° SSW 17:07:58 88° WNW 17:14:17 10° NNE visible
12 Dec 5.7 18:50:20 10° W 18:55:20 24° NW 18:58:34 17° N visible
12 Dec 6.7 20:42:28 10° NNW 20:42:34 10° NNW 20:42:34 10° NNW visible
13 Dec 4.4 17:18:10 10° SW 17:24:19 60° NW 17:30:32 10° NNE visible
13 Dec 6.0 19:07:52 10° WNW 19:12:10 19° NNW 19:14:39 15° N visible
14 Dec 5.0 17:34:56 10° WSW 17:40:48 42° NW 17:46:42 10° NNE visible
14 Dec 6.1 19:25:38 10° WNW 19:29:06 15° NNW 19:30:42 14° N visible
15 Dec 5.4 17:51:59 10° WSW 17:57:25 30° NW 18:02:44 11° NNE visible
15 Dec 6.3 19:43:36 10° NW 19:46:09 12° NNW 19:46:44 12° N visible
